USA 271

Last updated on Sun Jun 21 2026 00:03:07 GMT+0000 (Coordinated Universal Time)

1 41745U 16052B 26170.77261227 -.00000312 00000+0 00000+0 0 9990 2 41745 4.1758 77.2193 0002168 292.3947 288.6623 0.99836227 27943
UTC large
Height (km)
Speed (km/s)
/
Latitude / Longitude
Inclination (degrees)
Orbital Period (minutes)
Azimuth
Elevation
Range (km)
Doppler Factor

Next 0 passes for location: London (51.5072 / 0.1276)

No passes found over London.
USA 271